| time (UTC) | temp F | wind direction | speed knots | gust knots | rain 1hr in | rain 24hr in | rain mn in | humidity % | barometer mb |
| 20260504220527 | 64 | 229 | 0.9 | 3.5 | 0.00 | 0.00 | 0.00 | 67 | 1015.1 |
| 20260504215649 | 64 | 233 | 0.9 | 3.5 | 0.00 | 0.00 | 0.00 | 67 | 1015.1 |
| 20260504214749 | 64 | 227 | 0.9 | 3.5 | 0.00 | 0.00 | 0.00 | 67 | 1015.0 |
| 20260504213828 | 64 | 222 | 0.9 | 3.5 | 0.00 | 0.00 | 0.00 | 66 | 1015.0 |
| 20260504212949 | 64 | 232 | 1.7 | 2.6 | 0.00 | 0.00 | 0.00 | 66 | 1015.0 |
| 20260504212028 | 65 | 257 | 2.6 | 6.1 | 0.00 | 0.00 | 0.00 | 65 | 1015.0 |
| 20260504211127 | 65 | 246 | 3.5 | 8.7 | 0.00 | 0.00 | 0.00 | 65 | 1015.1 |
| 20260504210248 | 65 | 239 | 2.6 | 7.0 | 0.00 | 0.00 | 0.00 | 64 | 1015.0 |
| 20260504205327 | 65 | 228 | 2.6 | 7.0 | 0.00 | 0.00 | 0.00 | 64 | 1014.9 |
| 20260504204427 | 65 | 229 | 2.6 | 6.1 | 0.00 | 0.00 | 0.00 | 63 | 1014.8 |
| 20260504203527 | 66 | 212 | 2.6 | 6.1 | 0.00 | 0.00 | 0.00 | 62 | 1014.6 |
| 20260504202627 | 66 | 228 | 2.6 | 6.1 | 0.00 | 0.00 | 0.00 | 62 | 1014.5 |
| 20260504201727 | 66 | 227 | 3.5 | 7.8 | 0.00 | 0.00 | 0.00 | 61 | 1014.4 |
| 20260504200827 | 66 | 233 | 3.5 | 9.6 | 0.00 | 0.00 | 0.00 | 60 | 1014.3 |
| 20260504195927 | 67 | 242 | 4.3 | 9.6 | 0.00 | 0.00 | 0.00 | 60 | 1014.1 |
| 20260504195048 | 67 | 240 | 5.2 | 11.3 | 0.00 | 0.00 | 0.00 | 59 | 1014.0 |
| 20260504194127 | 67 | 247 | 6.1 | 12.2 | 0.00 | 0.00 | 0.00 | 58 | 1013.8 |
| 20260504193227 | 68 | 246 | 6.1 | 15.6 | 0.00 | 0.00 | 0.00 | 58 | 1013.8 |
| 20260504192348 | 68 | 258 | 5.2 | 15.6 | 0.00 | 0.00 | 0.00 | 58 | 1013.8 |
| 20260504191428 | 68 | 257 | 6.1 | 12.2 | 0.00 | 0.00 | 0.00 | 57 | 1013.7 |
| 20260504190527 | 69 | 247 | 5.2 | 14.8 | 0.00 | 0.00 | 0.00 | 57 | 1013.6 |
| 20260504185627 | 69 | 249 | 6.1 | 12.2 | 0.00 | 0.00 | 0.00 | 56 | 1013.6 |
| 20260504184728 | 70 | 253 | 7.0 | 13.0 | 0.00 | 0.00 | 0.00 | 56 | 1013.5 |
| 20260504183827 | 70 | 253 | 7.8 | 12.2 | 0.00 | 0.00 | 0.00 | 56 | 1013.4 |
| 20260504182927 | 70 | 248 | 7.8 | 14.8 | 0.00 | 0.00 | 0.00 | 56 | 1013.2 |
| 20260504182027 | 70 | 255 | 7.8 | 14.8 | 0.00 | 0.00 | 0.00 | 55 | 1013.2 |
| 20260504181127 | 71 | 251 | 7.8 | 15.6 | 0.00 | 0.00 | 0.00 | 55 | 1013.2 |
| 20260504180227 | 71 | 256 | 7.0 | 15.6 | 0.00 | 0.00 | 0.00 | 55 | 1013.1 |
| 20260504175327 | 72 | 262 | 7.8 | 15.6 | 0.00 | 0.00 | 0.00 | 54 | 1013.2 |
| 20260504174448 | 72 | 257 | 7.8 | 14.8 | 0.00 | 0.00 | 0.00 | 53 | 1013.1 |
| 20260504173548 | 72 | 257 | 8.7 | 16.5 | 0.00 | 0.00 | 0.00 | 53 | 1013.1 |
| 20260504172627 | 72 | 248 | 8.7 | 20.0 | 0.00 | 0.00 | 0.00 | 54 | 1013.0 |
| 20260504171727 | 73 | 244 | 8.7 | 18.2 | 0.00 | 0.00 | 0.00 | 53 | 1013.1 |
| 20260504170827 | 73 | 257 | 7.8 | 17.4 | 0.00 | 0.00 | 0.00 | 52 | 1013.1 |
| 20260504151126 | 75 | 280 | 4.3 | 8.7 | 0.00 | 0.00 | 0.00 | 36 | 1013.4 |
| 20260504150226 | 74 | 244 | 4.3 | 13.9 | 0.00 | 0.00 | 0.00 | 38 | 1013.5 |
| 20260504140847 | 74 | 238 | 4.3 | 11.3 | 0.00 | 0.00 | 0.00 | 38 | 1013.9 |
| 20260504130526 | 73 | 271 | 2.6 | 12.2 | 0.00 | 0.00 | 0.00 | 41 | 1014.2 |
| 20260504120226 | 71 | 270 | 3.5 | 10.4 | 0.00 | 0.00 | 0.00 | 45 | 1014.9 |
| 20260504100526 | 68 | 238 | 1.7 | 9.6 | 0.00 | 0.00 | 0.00 | 53 | 1015.4 |
| 20260504081725 | 63 | 321 | 2.6 | 7.0 | 0.00 | 0.00 | 0.00 | 72 | 1015.4 |
| 20260504080825 | 63 | 345 | 2.6 | 7.8 | 0.00 | 0.00 | 0.00 | 72 | 1015.4 |
| 20260504060225 | 60 | 305 | 0.0 | 0.9 | 0.00 | 0.00 | 0.00 | 82 | 1014.6 |
| 20260504045925 | 60 | 0 | 0.0 | 0.0 | 0.00 | 0.00 | 0.00 | 81 | 1014.0 |
| 20260504045046 | 60 | 0 | 0.0 | 0.0 | 0.00 | 0.00 | 0.00 | 81 | 1013.9 |
| 20260504044125 | 60 | 0 | 0.0 | 0.0 | 0.00 | 0.00 | 0.00 | 82 | 1013.8 |
| 20260504043225 | 60 | 0 | 0.0 | 0.0 | 0.00 | 0.00 | 0.00 | 82 | 1013.8 |
| 20260504042324 | 60 | 0 | 0.0 | 0.0 | 0.00 | 0.00 | 0.00 | 82 | 1013.7 |
| 20260504041425 | 60 | 0 | 0.0 | 0.0 | 0.00 | 0.00 | 0.00 | 82 | 1013.6 |
| 20260504040524 | 60 | 0 | 0.0 | 0.0 | 0.00 | 0.00 | 0.00 | 82 | 1013.7 |
| 20260504035624 | 60 | 0 | 0.0 | 0.0 | 0.00 | 0.00 | 0.00 | 82 | 1013.6 |
| 20260504034726 | 60 | 0 | 0.0 | 0.0 | 0.00 | 0.00 | 0.00 | 82 | 1013.7 |
| 20260504033824 | 60 | 0 | 0.0 | 0.0 | 0.00 | 0.00 | 0.00 | 82 | 1013.8 |
| 20260504032924 | 60 | 0 | 0.0 | 0.0 | 0.00 | 0.00 | 0.00 | 82 | 1013.9 |
| 20260504032024 | 60 | 0 | 0.0 | 0.0 | 0.00 | 0.00 | 0.00 | 82 | 1013.9 |
| 20260504031145 | 60 | 0 | 0.0 | 0.0 | 0.00 | 0.00 | 0.00 | 82 | 1013.7 |
| 20260504030245 | 60 | 0 | 0.0 | 0.0 | 0.00 | 0.00 | 0.00 | 82 | 1013.8 |
| 20260504025324 | 60 | 0 | 0.0 | 0.0 | 0.00 | 0.00 | 0.00 | 82 | 1013.8 |
| 20260504024424 | 61 | 0 | 0.0 | 0.0 | 0.00 | 0.00 | 0.00 | 82 | 1013.7 |
| 20260504023545 | 61 | 0 | 0.0 | 0.0 | 0.00 | 0.00 | 0.00 | 82 | 1013.6 |
| 20260504022624 | 61 | 0 | 0.0 | 0.0 | 0.00 | 0.00 | 0.00 | 82 | 1013.6 |
| 20260504021724 | 61 | 0 | 0.0 | 0.0 | 0.00 | 0.00 | 0.00 | 82 | 1013.6 |
| 20260504020824 | 61 | 0 | 0.0 | 0.0 | 0.00 | 0.00 | 0.00 | 81 | 1013.6 |
| 20260504015945 | 61 | 0 | 0.0 | 0.0 | 0.00 | 0.00 | 0.00 | 81 | 1013.7 |
| 20260504015024 | 60 | 0 | 0.0 | 0.0 | 0.00 | 0.00 | 0.00 | 81 | 1013.7 |
| 20260504014125 | 61 | 0 | 0.0 | 0.0 | 0.00 | 0.00 | 0.00 | 81 | 1013.8 |
| 20260504013224 | 61 | 0 | 0.0 | 0.0 | 0.00 | 0.00 | 0.00 | 81 | 1013.8 |
| 20260504012324 | 61 | 0 | 0.0 | 0.0 | 0.00 | 0.00 | 0.00 | 80 | 1013.9 |
| 20260504011445 | 61 | 0 | 0.0 | 0.0 | 0.00 | 0.00 | 0.00 | 80 | 1013.8 |
| 20260504010525 | 61 | 0 | 0.0 | 0.0 | 0.00 | 0.00 | 0.00 | 80 | 1013.9 |
| 20260504005645 | 62 | 214 | 0.0 | 0.9 | 0.00 | 0.00 | 0.00 | 80 | 1014.0 |
| 20260504004724 | 62 | 232 | 0.0 | 3.5 | 0.00 | 0.00 | 0.00 | 79 | 1014.0 |
| 20260504003845 | 62 | 221 | 0.9 | 1.7 | 0.00 | 0.00 | 0.00 | 79 | 1014.0 |
| 20260504002924 | 62 | 200 | 0.9 | 4.3 | 0.00 | 0.00 | 0.00 | 79 | 1014.1 |
| 20260504002045 | 62 | 212 | 1.7 | 7.8 | 0.00 | 0.00 | 0.00 | 79 | 1014.3 |
| 20260504001124 | 63 | 221 | 2.6 | 5.2 | 0.00 | 0.00 | 0.00 | 80 | 1014.3 |
| 20260504000226 | 63 | 232 | 2.6 | 7.0 | 0.00 | 0.00 | 0.00 | 80 | 1014.4 |
| 20260503235324 | 63 | 229 | 2.6 | 7.0 | 0.00 | 0.00 | 0.00 | 79 | 1014.5 |
| 20260503234424 | 63 | 232 | 1.7 | 5.2 | 0.00 | 0.00 | 0.00 | 79 | 1014.5 |
| 20260503233524 | 63 | 252 | 1.7 | 5.2 | 0.00 | 0.00 | 0.00 | 79 | 1014.5 |
| 20260503232624 | 63 | 218 | 1.7 | 4.3 | 0.00 | 0.00 | 0.00 | 78 | 1014.6 |
| 20260503231745 | 63 | 218 | 1.7 | 4.3 | 0.00 | 0.00 | 0.00 | 78 | 1014.7 |
| 20260503230845 | 63 | 226 | 1.7 | 5.2 | 0.00 | 0.00 | 0.00 | 78 | 1014.7 |
| 20260503225924 | 63 | 227 | 2.6 | 6.1 | 0.00 | 0.00 | 0.00 | 77 | 1014.7 |
| 20260503225024 | 63 | 218 | 1.7 | 6.1 | 0.00 | 0.00 | 0.00 | 77 | 1014.8 |
| 20260503224125 | 63 | 213 | 1.7 | 5.2 | 0.00 | 0.00 | 0.00 | 76 | 1014.9 |
| 20260503223223 | 63 | 217 | 1.7 | 7.8 | 0.00 | 0.00 | 0.00 | 76 | 1014.8 |
| 20260503222323 | 63 | 224 | 1.7 | 5.2 | 0.00 | 0.00 | 0.00 | 76 | 1014.8 |
| 20260503221423 | 63 | 226 | 1.7 | 6.1 | 0.00 | 0.00 | 0.00 | 76 | 1014.7 |